USA 40 R/B DEB, 23388

Orbit data source: Space-Track

USA 40 R/B DEB, 23388 is space debris in LEO originally from a launch on Tue, 08 Aug 1989 UTC launched from the Air Force Eastern Test Range (AFETR). Debris objects in space refer to the collection of defunct objects orbiting the Earth. Examples of debris include non-operational satellites, rocket bodies, and fragments generated from explosions, collisions, or faulty payload assembly.

Loading next visibility...
Identifier
23388, 1989-061BL
Orbit
LEO
Country
Flag of USUS
Related business
Manufacturer
Unknown
Mission
Spacecraft
Bus & Motor
Unknown
Mass
Unknown
Launch date (UTC)
1989-08-08 (37 years ago)
Launch vehicle
Unknown
Launch site
Air Force Eastern Test Range (AFETR)
Object type
Payload
Rocket body
Debris
Shape & HBR
Unknown shape, 0.1 m
Radar Cross Section
Small (<0.1 m²)

Expand to show TLE details & history
Last TLE update: 2 days ago

TLE from 2 days ago
0 USA 40 R/B DEB
1 23388U 89061BL  26092.52452639  .00027052  00000-0  13087-1 0  9999
2 23388  56.9844 154.1288 2274826 185.4825 171.6449 10.34066918 75625
Epoch: 2026-04-02T12:35Z
TLE epoch observation values (Epoch: 2026-04-02T12:35:19.080Z)
Latitude
0.00004°
Longitude
134.42756°
Altitude
4,532.71 km
Speed
5.319 km/s
True Right ascension
10h 16m 30s
True Declination
0° 00' 00"
Sunlit
Object was in daylight at epoch
Visualization orbit readout
Latitude
Unknown
Longitude
Unknown
Altitude
Unknown
Speed
Unknown
Apparent Right ascension
Unknown
Apparent Declination
Unknown
Sunlit
N/A
Visualization observer readout
Local Sidereal Time
02:36:23
Azimuth
Unknown
Elevation
Unknown
Doppler factor
Unknown
Orbital elements
Apogee altitude
4,545.587 km
Perigee altitude
496.72 km
Semi-major axis
8,899.29 km
Eccentricity
0.22748
Inclination
56.9844°
RAAN
154.1288°
Arg. of periapsis
185.4825°
True anomaly
174.59542°
Mean anomaly
171.6449°
Eccentric anomaly
173.19034°
Mean motion
2.58529 °/min
Orbital period
139.25 mins
BSTAR
0.013087
Loading maneuver chart data...
Computing Atmospheric mass density...
Loading historical data...
Loading historical data...
Loading historical data...
Loading historical data...
Loading historical data...
Loading historical data...
Loading historical data...

Documentation

Showing up to 5 results
|